{"data":{"norad_id":38778,"intl_designator":"2012-051A","name":"ASTRA 2F","alt_names":[],"object_type":"PAYLOAD","status":"ACTIVE","operator":null,"country":"SES","launch_date":"2012-09-28","launch_site_code":"FRGUI","launch_vehicle":null,"mission":null,"orbit_class":"UNKNOWN","rcs_meters":17.601,"size_class":null,"mass_kg":null,"dimensions":null,"purposes":["comms"],"wikipedia_slug":null,"has_3d_model":false,"image_url":null,"decayed_at":null,"tle_current":{"epoch":"2026-09-19T13:41:03.317856Z","epoch_age_seconds":94808,"freshness":"FRESH","line1":"1 38778U 12051A   26262.57017729  .00000146  00000+0  00000+0 0  9997","line2":"2 38778   0.0772 258.9954 0003758 297.3675  35.5889  1.00269651 42087","mean_motion":1.00269651,"eccentricity":0.0003758,"inclination_deg":0.0772,"raan_deg":258.9954,"arg_perigee_deg":297.3675,"mean_anomaly_deg":35.5889,"bstar":0,"rev_number":4208,"period_min":1436.1274679215,"perigee_km":35771.347478374,"apogee_km":35803.03894056,"semimajor_km":42165.330209467,"source":"CELESTRAK","updated_at":"2026-09-20T09:00:35.642299Z"}}}